Springfield, IL

4:15 AM CDT on August 24, 2017 (GMT -0500)
Capital

Weather History for KSPI - August, 2013

Change the Weather History Date:

Saturday, August 10, 2013

  Actual Average Record
Temperature  
Mean Temperature 71 °F 75 °F  
Max Temperature 83 °F 85 °F 100 °F (1938)
Min Temperature 58 °F 65 °F 51 °F (1972)
Degree Days  
Heating Degree Days 0 0  
Month to date heating degree days 0 0  
Since 1 June heating degree days 18 16  
Since 1 July heating degree days 6 1  
Cooling Degree Days 6 10  
Month to date cooling degree days 75 100  
Year to date cooling degree days 749 779  
Since 1 June cooling degree days 623 675  
Growing Degree Days 22 (Base 50)    
Moisture  
Dew Point 62 °F    
Average Humidity 70    
Maximum Humidity 93    
Minimum Humidity 47    
Precipitation  
Precipitation T in 0.10 in 1.91 in (1974)
Month to date precipitation 0.12 1.11  
Year to date precipitation 30.45 23.52  
Snow  
Snow 0.00 in 0.00 in 0.00 in ()
Month to date snowfall 0.0 0.0  
Since 1 June snowfall 0.0 0.0  
Since 1 July snowfall 0.0 0.0  
Snow Depth 0.00 in    
Sea Level Pressure  
Sea Level Pressure 30.11 in    
Wind  
Wind Speed 5 mph (NNW)    
Max Wind Speed 12 mph    
Max Gust Speed 16 mph    
Visibility 10 miles    
Events Rain    
T = Trace of Precipitation, MM = Missing Value Source: NWS Daily Summary

Daily Weather History Graph

Daily Weather History Graph

Search for Another Location

Airport or City:

Trip Planner

Search our weather history database for the weather conditions in past years. The results will help you decide how hot, cold, wet, or windy it might be!

Date:

Astronomy

Aug. 10, 2013 Rise Set
Actual Time 6:06 AM CDT 8:01 PM CDT
Civil Twilight 5:36 AM CDT 8:30 PM CDT
Nautical Twilight 5:01 AM CDT 9:06 PM CDT
Astronomical Twilight 4:22 AM CDT 9:44 PM CDT
Moon 9:52 AM CDT (8/10) 9:43 PM CDT (8/10)
Length of Visible Light 14h 53m
Length of Day
13h 55m
Waxing Crescent, 14% of the Moon is Illuminated
Aug 10
Waxing Crescent
Aug 14
First Quarter
Aug 20
Full
Aug 28
Last Quarter
Sep 5
New

Hourly Weather History & Observations

Time (CDT) Temp. Heat Index Dew Point Humidity Pressure Visibility Wind Dir Wind Speed Gust Speed Precip Events Conditions
12:52 AM 69.1 °F - 68.0 °F 96% 30.08 in 10.0 mi Calm Calm - 0.00 in Rain Light Rain
1:52 AM 69.1 °F - 66.9 °F 93% 30.08 in 10.0 mi Calm Calm - 0.00 in   Mostly Cloudy
2:52 AM 68.0 °F - 66.0 °F 93% 30.09 in 10.0 mi West 3.5 mph - N/A   Clear
3:52 AM 68.0 °F - 66.0 °F 93% 30.09 in 10.0 mi NW 6.9 mph - N/A   Clear
4:52 AM 66.0 °F - 64.9 °F 96% 30.09 in 10.0 mi Calm Calm - N/A   Clear
5:52 AM 66.0 °F - 64.9 °F 96% 30.09 in 10.0 mi NNW 5.8 mph - N/A   Clear
6:52 AM 66.9 °F - 63.0 °F 87% 30.11 in 10.0 mi North 8.1 mph - N/A   Clear
7:52 AM 69.1 °F - 62.1 °F 78% 30.12 in 10.0 mi North 5.8 mph - N/A   Clear
8:52 AM 73.0 °F - 63.0 °F 71% 30.14 in 10.0 mi North 8.1 mph - N/A   Clear
9:52 AM 75.9 °F - 61.0 °F 60% 30.14 in 10.0 mi NNW 6.9 mph - N/A   Clear
10:52 AM 79.0 °F - 60.1 °F 52% 30.14 in 10.0 mi North 9.2 mph - N/A   Clear
11:52 AM 79.0 °F - 60.1 °F 52% 30.14 in 10.0 mi NW 4.6 mph - N/A   Clear
12:52 PM 81.0 °F 81.9 °F 62.1 °F 52% 30.14 in 10.0 mi WNW 8.1 mph - N/A   Clear
1:52 PM 81.0 °F 82.2 °F 63.0 °F 54% 30.13 in 10.0 mi WNW 8.1 mph - N/A   Partly Cloudy
2:52 PM 81.0 °F 82.2 °F 63.0 °F 54% 30.12 in 10.0 mi WNW 8.1 mph - N/A   Clear
3:52 PM 81.0 °F 81.9 °F 62.1 °F 52% 30.10 in 10.0 mi WNW 6.9 mph - N/A   Clear
4:52 PM 82.0 °F 82.4 °F 60.1 °F 47% 30.09 in 10.0 mi NNW 8.1 mph - N/A   Partly Cloudy
5:52 PM 80.1 °F 80.9 °F 60.1 °F 50% 30.09 in 10.0 mi NNW 9.2 mph - N/A   Clear
6:52 PM 78.1 °F - 61.0 °F 56% 30.08 in 10.0 mi North 8.1 mph - N/A   Clear
7:52 PM 73.0 °F - 60.1 °F 64% 30.10 in 10.0 mi North 5.8 mph - N/A   Clear
8:52 PM 68.0 °F - 60.1 °F 76% 30.12 in 10.0 mi NNW 4.6 mph - N/A   Clear
9:52 PM 66.9 °F - 59.0 °F 76% 30.14 in 10.0 mi NNW 3.5 mph - N/A   Clear
10:52 PM 63.0 °F - 59.0 °F 87% 30.14 in 10.0 mi Calm Calm - N/A   Clear
11:52 PM 61.0 °F - 57.9 °F 90% 30.14 in 10.0 mi Calm Calm - N/A   Clear